Amur-2507 — XUEC6 — position and weather

sailwx.info

Track history (hours):
 
Tides and Currents Weather Stations Pressure Air Temp Water Temp Dewpoint Dewpoint Depression Visibility Wind Speed Wind Dir Waves Ship Positions

Amur-2507

Last reported at 2014-Aug-31 05:22 UTC. Time now 2014-Sep-01 23:56 UTC.
Position N 40°55' E 028°50'.

Length 115 m; draft 4 m.

Type: Cargo ship. MMSI: 515694000.

Date/timePositionNaut miles runAvg speedWind from/ knotsBaromVisibWave heightAir tempDewpointWater temp
2014-Aug-31 05:22N 40°55' E 028°50'6 6.3
2014-Aug-31 04:28N 40°58' E 028°57'309 6.6
2014-Aug-29 05:33N 44°23' E 034°09'12 8.2
2014-Aug-29 04:08N 44°29' E 034°24'5 8.3
2014-Aug-29 03:34N 44°31' E 034°30'8 7.6
2014-Aug-29 02:34N 44°35' E 034°39'8 7.8
2014-Aug-29 01:33N 44°39' E 034°49'  
2014-Aug-22 16:04N 44°30' E 036°32'4 8.1
2014-Aug-22 15:34N 44°26' E 036°31'8 8.1
2014-Aug-22 14:31N 44°18' E 036°30'  
Track history (hours):
 
Tides and Currents Weather Stations Pressure Air Temp Water Temp Dewpoint Dewpoint Depression Visibility Wind Speed Wind Dir Waves Ship Positions

Amur-2507

Last reported at 2014-Aug-31 05:22 UTC. Time now 2014-Sep-01 23:56 UTC.
Position N 40°55' E 028°50'.

Length 115 m; draft 4 m.

Type: Cargo ship. MMSI: 515694000.

Date/timePositionNaut miles runAvg speedWind from/ knotsBaromVisibWave heightAir tempDewpointWater temp
2014-Aug-31 05:22N 40°55' E 028°50'6 6.3
2014-Aug-31 04:28N 40°58' E 028°57'309 6.6
2014-Aug-29 05:33N 44°23' E 034°09'12 8.2
2014-Aug-29 04:08N 44°29' E 034°24'5 8.3
2014-Aug-29 03:34N 44°31' E 034°30'8 7.6
2014-Aug-29 02:34N 44°35' E 034°39'8 7.8
2014-Aug-29 01:33N 44°39' E 034°49'  
2014-Aug-22 16:04N 44°30' E 036°32'4 8.1
2014-Aug-22 15:34N 44°26' E 036°31'8 8.1
2014-Aug-22 14:31N 44°18' E 036°30'  

Dump ship's entire track history